| time (UTC) | temp F | wind direction | speed MPH | gust MPH | rain 1hr in | rain 24hr in | rain mn in | humidity % | barometer mb |
| 20260906152604 | 73 | 95 | 4.0 | 10.0 | 0.00 | 0.00 | 0.00 | 73 | 1017.0 |
| 20260906152104 | 72 | 149 | 5.0 | 10.0 | 0.00 | 0.00 | 0.00 | 75 | 1017.0 |
| 20260906151604 | 71 | 62 | 5.0 | 12.0 | 0.00 | 0.00 | 0.00 | 74 | 1017.0 |
| 20260906151105 | 71 | 69 | 4.0 | 10.0 | 0.00 | 0.00 | 0.00 | 75 | 1017.1 |
| 20260906150604 | 71 | 52 | 3.0 | 9.0 | 0.00 | 0.00 | 0.00 | 77 | 1017.1 |
| 20260906150104 | 71 | 97 | 5.0 | 10.0 | 0.00 | 0.00 | 0.00 | 77 | 1017.1 |
| 20260906145604 | 70 | 137 | 2.0 | 6.0 | 0.00 | 0.00 | 0.00 | 77 | 1017.2 |
| 20260906145104 | 70 | 83 | 2.0 | 9.0 | 0.00 | 0.00 | 0.00 | 77 | 1017.0 |
| 20260906144105 | 70 | 68 | 2.0 | 6.0 | 0.00 | 0.00 | 0.00 | 78 | 1017.0 |
| 20260906143604 | 70 | 59 | 2.0 | 9.0 | 0.00 | 0.00 | 0.00 | 78 | 1017.0 |
| 20260906143105 | 70 | 74 | 5.0 | 12.0 | 0.00 | 0.00 | 0.00 | 77 | 1017.0 |
| 20260906142604 | 70 | 114 | 5.0 | 10.0 | 0.00 | 0.00 | 0.00 | 77 | 1016.9 |
| 20260906142104 | 70 | 46 | 7.0 | 12.0 | 0.00 | 0.00 | 0.00 | 78 | 1017.0 |
| 20260906141604 | 70 | 50 | 7.0 | 16.0 | 0.00 | 0.00 | 0.00 | 79 | 1016.9 |
| 20260906141104 | 70 | 62 | 5.0 | 15.0 | 0.00 | 0.00 | 0.00 | 78 | 1016.8 |
| 20260906140604 | 70 | 60 | 6.0 | 14.0 | 0.00 | 0.00 | 0.00 | 78 | 1016.7 |
| 20260906140104 | 70 | 35 | 5.0 | 10.0 | 0.00 | 0.00 | 0.00 | 79 | 1016.7 |
| 20260906135605 | 70 | 46 | 5.0 | 9.0 | 0.00 | 0.00 | 0.00 | 79 | 1016.6 |
| 20260906135105 | 70 | 78 | 3.0 | 10.0 | 0.00 | 0.00 | 0.00 | 79 | 1016.7 |
| 20260906134604 | 70 | 85 | 3.0 | 10.0 | 0.00 | 0.00 | 0.00 | 80 | 1016.6 |
| 20260906134105 | 70 | 102 | 4.0 | 14.0 | 0.00 | 0.00 | 0.00 | 81 | 1016.6 |
| 20260906133604 | 69 | 69 | 5.0 | 12.0 | 0.00 | 0.00 | 0.00 | 82 | 1016.6 |
| 20260906133105 | 68 | 15 | 5.0 | 8.0 | 0.00 | 0.00 | 0.00 | 84 | 1016.6 |
| 20260906132605 | 67 | 44 | 2.0 | 10.0 | 0.00 | 0.00 | 0.00 | 85 | 1016.5 |
| 20260906131604 | 66 | 83 | 2.0 | 5.0 | 0.00 | 0.00 | 0.00 | 85 | 1016.6 |
| 20260906131104 | 66 | 0 | 3.0 | 10.0 | 0.00 | 0.00 | 0.00 | 85 | 1016.5 |
| 20260906130604 | 66 | 44 | 5.0 | 13.0 | 0.00 | 0.00 | 0.00 | 85 | 1016.5 |
| 20260906130104 | 67 | 50 | 4.0 | 13.0 | 0.00 | 0.00 | 0.00 | 86 | 1016.5 |
| 20260906125604 | 66 | 37 | 3.0 | 3.0 | 0.00 | 0.00 | 0.00 | 87 | 1016.5 |
| 20260906125104 | 66 | 33 | 2.0 | 3.0 | 0.00 | 0.00 | 0.00 | 87 | 1016.5 |
| 20260906124605 | 66 | 42 | 1.0 | 6.0 | 0.00 | 0.00 | 0.00 | 87 | 1016.4 |
| 20260906124104 | 66 | 20 | 3.0 | 7.0 | 0.00 | 0.00 | 0.00 | 86 | 1016.4 |
| 20260906123604 | 66 | 35 | 3.0 | 5.0 | 0.00 | 0.00 | 0.00 | 87 | 1016.4 |
| 20260906123104 | 66 | 81 | 1.0 | 5.0 | 0.00 | 0.00 | 0.00 | 87 | 1016.4 |
| 20260906122105 | 66 | 65 | 3.0 | 5.0 | 0.00 | 0.00 | 0.00 | 87 | 1016.3 |
| 20260906121604 | 66 | 105 | 2.0 | 3.0 | 0.00 | 0.00 | 0.00 | 88 | 1016.4 |
| 20260906121105 | 66 | 114 | 1.0 | 3.0 | 0.00 | 0.00 | 0.00 | 88 | 1016.3 |
| 20260906120605 | 66 | 114 | 0.0 | 3.0 | 0.00 | 0.00 | 0.00 | 89 | 1016.2 |
| 20260906115104 | 65 | 102 | 0.0 | 2.0 | 0.00 | 0.00 | 0.00 | 92 | 1016.2 |
| 20260906114604 | 65 | 102 | 0.0 | 0.0 | 0.00 | 0.00 | 0.00 | 92 | 1016.1 |
| 20260906114104 | 64 | 102 | 0.0 | 0.0 | 0.00 | 0.00 | 0.00 | 93 | 1016.1 |
| 20260906113604 | 63 | 102 | 0.0 | 2.0 | 0.00 | 0.00 | 0.00 | 93 | 1016.0 |
| 20260906113103 | 63 | 102 | 0.0 | 2.0 | 0.00 | 0.00 | 0.00 | 92 | 1016.0 |
| 20260906112604 | 63 | 102 | 1.0 | 2.0 | 0.00 | 0.00 | 0.00 | 93 | 1016.0 |
| 20260906112104 | 62 | 105 | 0.0 | 0.0 | 0.00 | 0.00 | 0.00 | 93 | 1015.9 |
| 20260906111604 | 62 | 105 | 0.0 | 0.0 | 0.00 | 0.00 | 0.00 | 92 | 1015.9 |
| 20260906111105 | 62 | 105 | 0.0 | 0.0 | 0.00 | 0.00 | 0.00 | 92 | 1015.8 |
| 20260906110604 | 62 | 105 | 0.0 | 0.0 | 0.00 | 0.00 | 0.00 | 92 | 1015.9 |
| 20260906110104 | 62 | 105 | 0.0 | 0.0 | 0.00 | 0.00 | 0.00 | 92 | 1015.7 |
| 20260906105604 | 62 | 105 | 0.0 | 0.0 | 0.00 | 0.00 | 0.00 | 91 | 1015.7 |
| 20260906105104 | 62 | 105 | 0.0 | 0.0 | 0.00 | 0.00 | 0.00 | 91 | 1015.6 |
| 20260906104103 | 62 | 105 | 0.0 | 1.0 | 0.00 | 0.00 | 0.00 | 91 | 1015.4 |
| 20260906103104 | 62 | 105 | 0.0 | 2.0 | 0.00 | 0.00 | 0.00 | 91 | 1015.3 |
| 20260906102604 | 63 | 106 | 0.0 | 0.0 | 0.00 | 0.00 | 0.00 | 90 | 1015.2 |
| 20260906101603 | 63 | 106 | 0.0 | 2.0 | 0.00 | 0.00 | 0.00 | 90 | 1015.1 |
| 20260906101103 | 63 | 106 | 0.0 | 0.0 | 0.00 | 0.00 | 0.00 | 90 | 1015.1 |
| 20260906100604 | 63 | 106 | 0.0 | 0.0 | 0.00 | 0.00 | 0.00 | 90 | 1015.0 |
| 20260906100104 | 63 | 106 | 0.0 | 2.0 | 0.00 | 0.00 | 0.00 | 90 | 1015.0 |
| 20260906095604 | 63 | 73 | 0.0 | 3.0 | 0.00 | 0.00 | 0.00 | 90 | 1015.0 |
| 20260906094605 | 63 | 74 | 1.0 | 6.0 | 0.00 | 0.00 | 0.00 | 90 | 1014.9 |
| 20260906094105 | 63 | 79 | 1.0 | 3.0 | 0.00 | 0.00 | 0.00 | 90 | 1014.8 |
| 20260906093603 | 63 | 77 | 1.0 | 3.0 | 0.00 | 0.00 | 0.00 | 90 | 1014.7 |
| 20260906093104 | 63 | 59 | 3.0 | 6.0 | 0.00 | 0.00 | 0.00 | 90 | 1014.7 |
| 20260906092604 | 63 | 93 | 1.0 | 3.0 | 0.00 | 0.00 | 0.00 | 90 | 1014.7 |
| 20260906092104 | 63 | 84 | 4.0 | 9.0 | 0.00 | 0.00 | 0.00 | 90 | 1014.7 |
| 20260906091605 | 63 | 80 | 4.0 | 9.0 | 0.00 | 0.00 | 0.00 | 90 | 1014.7 |
| 20260906091105 | 63 | 89 | 2.0 | 5.0 | 0.00 | 0.00 | 0.00 | 90 | 1014.6 |
| 20260906090104 | 64 | 99 | 2.0 | 3.0 | 0.00 | 0.00 | 0.00 | 90 | 1014.5 |
| 20260906085604 | 64 | 99 | 1.0 | 3.0 | 0.00 | 0.00 | 0.00 | 89 | 1014.5 |
| 20260906085104 | 64 | 106 | 0.0 | 2.0 | 0.00 | 0.00 | 0.00 | 90 | 1014.6 |
| 20260906084604 | 64 | 106 | 0.0 | 3.0 | 0.00 | 0.00 | 0.00 | 90 | 1014.7 |
| 20260906084105 | 64 | 105 | 1.0 | 3.0 | 0.00 | 0.00 | 0.00 | 90 | 1014.7 |
| 20260906083604 | 64 | 105 | 0.0 | 0.0 | 0.00 | 0.00 | 0.00 | 89 | 1014.7 |
| 20260906083104 | 64 | 103 | 0.0 | 0.0 | 0.00 | 0.00 | 0.00 | 89 | 1014.6 |
| 20260906082605 | 64 | 103 | 0.0 | 0.0 | 0.00 | 0.00 | 0.00 | 89 | 1014.5 |
| 20260906082105 | 64 | 103 | 0.0 | 0.0 | 0.00 | 0.00 | 0.00 | 89 | 1014.4 |
| 20260906081604 | 64 | 103 | 0.0 | 0.0 | 0.00 | 0.00 | 0.00 | 89 | 1014.4 |
| 20260906081104 | 64 | 103 | 0.0 | 0.0 | 0.00 | 0.00 | 0.00 | 89 | 1014.5 |
| 20260906080604 | 64 | 103 | 0.0 | 0.0 | 0.00 | 0.00 | 0.00 | 89 | 1014.3 |
| 20260906080104 | 64 | 103 | 0.0 | 0.0 | 0.00 | 0.00 | 0.00 | 89 | 1014.3 |
| 20260906075604 | 64 | 103 | 0.0 | 0.0 | 0.00 | 0.00 | 0.00 | 89 | 1014.2 |
| 20260906075104 | 64 | 103 | 0.0 | 3.0 | 0.00 | 0.00 | 0.00 | 89 | 1014.2 |
| 20260906074104 | 64 | 86 | 0.0 | 2.0 | 0.00 | 0.00 | 0.00 | 89 | 1014.1 |
| 20260906073604 | 64 | 85 | 1.0 | 3.0 | 0.00 | 0.00 | 0.00 | 89 | 1014.2 |
| 20260906072605 | 64 | 115 | 0.0 | 2.0 | 0.00 | 0.00 | 0.00 | 90 | 1014.3 |
| 20260906072104 | 64 | 114 | 1.0 | 3.0 | 0.00 | 0.00 | 0.00 | 90 | 1014.2 |
| 20260906071604 | 64 | 105 | 1.0 | 3.0 | 0.00 | 0.00 | 0.00 | 90 | 1014.2 |
| 20260906070104 | 65 | 59 | 0.0 | 0.0 | 0.00 | 0.00 | 0.00 | 90 | 1014.3 |
| 20260906065103 | 65 | 59 | 0.0 | 0.0 | 0.00 | 0.00 | 0.00 | 90 | 1014.2 |
| 20260906064604 | 65 | 59 | 0.0 | 0.0 | 0.00 | 0.00 | 0.00 | 90 | 1014.3 |
| 20260906064105 | 65 | 59 | 0.0 | 0.0 | 0.00 | 0.00 | 0.00 | 90 | 1014.4 |
| 20260906063604 | 65 | 59 | 0.0 | 0.0 | 0.00 | 0.00 | 0.00 | 90 | 1014.3 |
| 20260906063103 | 65 | 59 | 0.0 | 0.0 | 0.00 | 0.00 | 0.00 | 89 | 1014.4 |
| 20260906062605 | 65 | 59 | 0.0 | 0.0 | 0.00 | 0.00 | 0.00 | 89 | 1014.4 |
| 20260906062105 | 65 | 59 | 0.0 | 0.0 | 0.00 | 0.00 | 0.00 | 89 | 1014.3 |
| 20260906061604 | 65 | 59 | 0.0 | 0.0 | 0.00 | 0.00 | 0.00 | 89 | 1014.3 |
| 20260906060604 | 65 | 59 | 0.0 | 0.0 | 0.00 | 0.00 | 0.00 | 89 | 1014.4 |
| 20260906060104 | 65 | 59 | 0.0 | 0.0 | 0.00 | 0.00 | 0.00 | 89 | 1014.3 |
| 20260906055604 | 65 | 59 | 0.0 | 2.0 | 0.00 | 0.00 | 0.00 | 90 | 1014.4 |
| 20260906055104 | 65 | 59 | 1.0 | 3.0 | 0.00 | 0.00 | 0.00 | 90 | 1014.4 |
| 20260906054605 | 65 | 32 | 1.0 | 3.0 | 0.00 | 0.00 | 0.00 | 91 | 1014.4 |
| 20260906054105 | 65 | 53 | 0.0 | 0.0 | 0.00 | 0.00 | 0.00 | 90 | 1014.5 |
| 20260906053603 | 65 | 53 | 0.0 | 0.0 | 0.00 | 0.00 | 0.00 | 91 | 1014.6 |
| 20260906053104 | 65 | 53 | 0.0 | 0.0 | 0.00 | 0.00 | 0.00 | 91 | 1014.6 |
| 20260906052605 | 64 | 53 | 0.0 | 0.0 | 0.00 | 0.00 | 0.00 | 91 | 1014.6 |
| 20260906052105 | 64 | 53 | 0.0 | 3.0 | 0.00 | 0.00 | 0.00 | 91 | 1014.5 |
| 20260906051104 | 64 | 54 | 0.0 | 1.0 | 0.00 | 0.00 | 0.00 | 91 | 1014.5 |
| 20260906050104 | 64 | 53 | 0.0 | 0.0 | 0.00 | 0.00 | 0.00 | 91 | 1014.3 |
| 20260906045605 | 64 | 53 | 0.0 | 0.0 | 0.00 | 0.00 | 0.00 | 91 | 1014.4 |
| 20260906045104 | 64 | 53 | 0.0 | 0.0 | 0.00 | 0.00 | 0.00 | 91 | 1014.5 |
| 20260906044603 | 64 | 53 | 0.0 | 0.0 | 0.00 | 0.00 | 0.00 | 91 | 1014.5 |
| 20260906043605 | 64 | 53 | 0.0 | 0.0 | 0.00 | 0.00 | 0.00 | 91 | 1014.5 |
| 20260906042604 | 64 | 53 | 0.0 | 0.0 | 0.00 | 0.00 | 0.00 | 91 | 1014.5 |
| 20260906042104 | 64 | 53 | 0.0 | 0.0 | 0.00 | 0.00 | 0.00 | 91 | 1014.5 |
| 20260906041604 | 64 | 53 | 0.0 | 0.0 | 0.00 | 0.00 | 0.00 | 90 | 1014.5 |
| 20260906041104 | 64 | 53 | 0.0 | 1.0 | 0.00 | 0.00 | 0.00 | 90 | 1014.5 |
| 20260906040604 | 64 | 54 | 0.0 | 2.0 | 0.00 | 0.00 | 0.00 | 90 | 1014.4 |
| 20260906040105 | 64 | 45 | 0.0 | 0.0 | 0.00 | 0.00 | 0.00 | 90 | 1014.3 |
| 20260906035604 | 64 | 45 | 0.0 | 0.0 | 0.00 | 0.00 | 0.00 | 90 | 1014.3 |
| 20260906035103 | 64 | 45 | 0.0 | 0.0 | 0.00 | 0.00 | 0.00 | 90 | 1014.3 |
| 20260906034604 | 64 | 45 | 0.0 | 0.0 | 0.00 | 0.00 | 0.00 | 90 | 1014.3 |
| 20260906034104 | 64 | 45 | 0.0 | 0.0 | 0.00 | 0.00 | 0.00 | 89 | 1014.3 |
| 20260906033604 | 64 | 45 | 0.0 | 1.0 | 0.00 | 0.00 | 0.00 | 89 | 1014.3 |
| 20260906032603 | 64 | 45 | 0.0 | 2.0 | 0.00 | 0.00 | 0.00 | 89 | 1014.3 |
| 20260906032104 | 64 | 45 | 0.0 | 0.0 | 0.00 | 0.00 | 0.00 | 89 | 1014.2 |
| 20260906031604 | 64 | 45 | 0.0 | 0.0 | 0.00 | 0.00 | 0.00 | 88 | 1014.0 |
| 20260906031104 | 64 | 45 | 0.0 | 0.0 | 0.00 | 0.00 | 0.00 | 88 | 1014.0 |
| 20260906030603 | 64 | 45 | 0.0 | 0.0 | 0.00 | 0.00 | 0.00 | 88 | 1013.9 |
| 20260906025604 | 65 | 45 | 0.0 | 0.0 | 0.00 | 0.00 | 0.00 | 87 | 1013.8 |
| 20260906025104 | 65 | 45 | 0.0 | 0.0 | 0.00 | 0.00 | 0.00 | 87 | 1013.8 |
| 20260906024605 | 65 | 45 | 0.0 | 0.0 | 0.00 | 0.00 | 0.00 | 87 | 1013.9 |
| 20260906023603 | 66 | 45 | 0.0 | 0.0 | 0.00 | 0.00 | 0.00 | 86 | 1013.8 |
| 20260906023104 | 66 | 45 | 0.0 | 0.0 | 0.00 | 0.00 | 0.00 | 86 | 1013.9 |
| 20260906022104 | 66 | 45 | 0.0 | 0.0 | 0.00 | 0.00 | 0.00 | 85 | 1013.9 |
| 20260906021603 | 66 | 45 | 0.0 | 0.0 | 0.00 | 0.00 | 0.00 | 85 | 1014.0 |
| 20260906021104 | 66 | 45 | 0.0 | 0.0 | 0.00 | 0.00 | 0.00 | 84 | 1013.9 |
| 20260906020605 | 67 | 45 | 0.0 | 0.0 | 0.00 | 0.00 | 0.00 | 84 | 1013.8 |
| 20260906020104 | 67 | 45 | 0.0 | 3.0 | 0.00 | 0.00 | 0.00 | 84 | 1013.8 |
| 20260906015604 | 67 | 45 | 0.0 | 0.0 | 0.00 | 0.00 | 0.00 | 83 | 1013.8 |
| 20260906015104 | 67 | 45 | 0.0 | 0.0 | 0.00 | 0.00 | 0.00 | 82 | 1013.8 |
| 20260906014604 | 68 | 45 | 0.0 | 0.0 | 0.00 | 0.00 | 0.00 | 81 | 1013.7 |
| 20260906013604 | 68 | 45 | 0.0 | 0.0 | 0.00 | 0.00 | 0.00 | 80 | 1013.7 |
| 20260906013103 | 69 | 45 | 0.0 | 0.0 | 0.00 | 0.00 | 0.00 | 79 | 1013.7 |
| 20260906012604 | 69 | 45 | 0.0 | 0.0 | 0.00 | 0.00 | 0.00 | 78 | 1013.7 |
| 20260906012104 | 69 | 40 | 0.0 | 1.0 | 0.00 | 0.00 | 0.00 | 78 | 1013.5 |
| 20260906011604 | 70 | 44 | 0.0 | 2.0 | 0.00 | 0.00 | 0.00 | 77 | 1013.5 |
| 20260906011104 | 70 | 40 | 1.0 | 2.0 | 0.00 | 0.00 | 0.00 | 77 | 1013.6 |
| 20260906010603 | 70 | 40 | 2.0 | 3.0 | 0.00 | 0.00 | 0.00 | 77 | 1013.6 |
| 20260906010104 | 70 | 40 | 1.0 | 2.0 | 0.00 | 0.00 | 0.00 | 77 | 1013.4 |
| 20260906005604 | 70 | 40 | 0.0 | 0.0 | 0.00 | 0.00 | 0.00 | 76 | 1013.4 |
| 20260906004604 | 70 | 43 | 2.0 | 3.0 | 0.00 | 0.00 | 0.00 | 76 | 1013.2 |
| 20260906004104 | 70 | 58 | 2.0 | 3.0 | 0.00 | 0.00 | 0.00 | 76 | 1013.2 |
| 20260906003104 | 71 | 23 | 1.0 | 6.0 | 0.00 | 0.00 | 0.00 | 75 | 1013.1 |
| 20260906002603 | 71 | 40 | 0.0 | 1.0 | 0.00 | 0.00 | 0.00 | 75 | 1013.1 |
| 20260906002105 | 71 | 31 | 1.0 | 3.0 | 0.00 | 0.00 | 0.00 | 75 | 1013.1 |
| 20260906001604 | 71 | 34 | 2.0 | 5.0 | 0.00 | 0.00 | 0.00 | 75 | 1013.1 |
| 20260906001103 | 71 | 51 | 2.0 | 5.0 | 0.00 | 0.00 | 0.00 | 75 | 1013.1 |
| 20260906000604 | 71 | 26 | 3.0 | 6.0 | 0.00 | 0.00 | 0.00 | 75 | 1013.1 |
| 20260906000105 | 71 | 38 | 2.0 | 5.0 | 0.00 | 0.00 | 0.00 | 75 | 1013.0 |
| 20260905235603 | 71 | 30 | 2.0 | 5.0 | 0.00 | 0.00 | 0.00 | 75 | 1012.9 |
| 20260905235104 | 71 | 19 | 2.0 | 5.0 | 0.00 | 0.00 | 0.00 | 75 | 1012.8 |
| 20260905234604 | 71 | 48 | 0.0 | 3.0 | 0.00 | 0.00 | 0.00 | 74 | 1012.7 |
| 20260905234104 | 71 | 51 | 2.0 | 5.0 | 0.00 | 0.00 | 0.00 | 74 | 1012.6 |
| 20260905233603 | 71 | 33 | 2.0 | 5.0 | 0.00 | 0.00 | 0.00 | 74 | 1012.6 |
| 20260905232604 | 71 | 22 | 3.0 | 6.0 | 0.00 | 0.00 | 0.00 | 74 | 1012.6 |
| 20260905232103 | 71 | 31 | 3.0 | 9.0 | 0.00 | 0.00 | 0.00 | 74 | 1012.6 |
| 20260905231604 | 72 | 22 | 2.0 | 5.0 | 0.00 | 0.00 | 0.00 | 75 | 1012.6 |
| 20260905230604 | 72 | 23 | 3.0 | 6.0 | 0.00 | 0.00 | 0.00 | 74 | 1012.5 |
| 20260905230104 | 73 | 31 | 3.0 | 8.0 | 0.00 | 0.00 | 0.00 | 73 | 1012.5 |
| 20260905225603 | 73 | 100 | 1.0 | 3.0 | 0.00 | 0.00 | 0.00 | 72 | 1012.4 |
| 20260905225104 | 73 | 359 | 2.0 | 5.0 | 0.00 | 0.00 | 0.00 | 72 | 1012.4 |
| 20260905224604 | 73 | 20 | 3.0 | 8.0 | 0.00 | 0.00 | 0.00 | 71 | 1012.4 |
| 20260905224104 | 73 | 30 | 1.0 | 5.0 | 0.00 | 0.00 | 0.00 | 71 | 1012.3 |
| 20260905223603 | 73 | 20 | 2.0 | 3.0 | 0.00 | 0.00 | 0.00 | 70 | 1012.1 |
| 20260905223105 | 73 | 16 | 3.0 | 5.0 | 0.00 | 0.00 | 0.00 | 70 | 1012.1 |
| 20260905222604 | 73 | 28 | 3.0 | 10.0 | 0.00 | 0.00 | 0.00 | 70 | 1012.2 |
| 20260905222104 | 74 | 9 | 1.0 | 3.0 | 0.00 | 0.00 | 0.00 | 70 | 1012.1 |
| 20260905221604 | 74 | 17 | 2.0 | 3.0 | 0.00 | 0.00 | 0.00 | 70 | 1012.0 |
| 20260905220605 | 74 | 25 | 2.0 | 5.0 | 0.00 | 0.00 | 0.00 | 69 | 1011.9 |
| 20260905220104 | 75 | 8 | 3.0 | 7.0 | 0.00 | 0.00 | 0.00 | 68 | 1011.9 |
| 20260905215603 | 75 | 31 | 3.0 | 8.0 | 0.00 | 0.00 | 0.00 | 68 | 1011.9 |
| 20260905215104 | 75 | 355 | 2.0 | 7.0 | 0.00 | 0.00 | 0.00 | 68 | 1011.9 |
| 20260905214604 | 75 | 11 | 2.0 | 6.0 | 0.00 | 0.00 | 0.00 | 68 | 1011.7 |
| 20260905214104 | 75 | 38 | 2.0 | 3.0 | 0.00 | 0.00 | 0.00 | 67 | 1011.7 |
| 20260905213603 | 75 | 94 | 1.0 | 5.0 | 0.00 | 0.00 | 0.00 | 66 | 1011.7 |
| 20260905213104 | 75 | 28 | 2.0 | 6.0 | 0.00 | 0.00 | 0.00 | 66 | 1011.7 |
| 20260905212605 | 76 | 16 | 3.0 | 9.0 | 0.00 | 0.00 | 0.00 | 65 | 1011.6 |
| 20260905212104 | 76 | 50 | 2.0 | 5.0 | 0.00 | 0.00 | 0.00 | 64 | 1011.6 |
| 20260905211604 | 77 | 45 | 4.0 | 8.0 | 0.00 | 0.00 | 0.00 | 62 | 1011.6 |
| 20260905211103 | 77 | 337 | 2.0 | 6.0 | 0.00 | 0.00 | 0.00 | 63 | 1011.6 |
| 20260905210605 | 77 | 40 | 1.0 | 5.0 | 0.00 | 0.00 | 0.00 | 63 | 1011.5 |
| 20260905210104 | 77 | 49 | 1.0 | 3.0 | 0.00 | 0.00 | 0.00 | 63 | 1011.4 |
| 20260905205104 | 76 | 24 | 1.0 | 3.0 | 0.00 | 0.00 | 0.00 | 64 | 1011.4 |
| 20260905204605 | 76 | 21 | 2.0 | 5.0 | 0.00 | 0.00 | 0.00 | 63 | 1011.4 |
| 20260905204104 | 77 | 52 | 3.0 | 8.0 | 0.00 | 0.00 | 0.00 | 61 | 1011.3 |
| 20260905203604 | 78 | 27 | 2.0 | 10.0 | 0.00 | 0.00 | 0.00 | 59 | 1011.3 |
| 20260905202603 | 80 | 30 | 4.0 | 8.0 | 0.00 | 0.00 | 0.00 | 58 | 1011.3 |
| 20260905202103 | 80 | 45 | 2.0 | 5.0 | 0.00 | 0.00 | 0.00 | 60 | 1011.3 |
| 20260905201604 | 79 | 20 | 4.0 | 9.0 | 0.00 | 0.00 | 0.00 | 59 | 1011.3 |
| 20260905201103 | 79 | 1 | 5.0 | 10.0 | 0.00 | 0.00 | 0.00 | 58 | 1011.3 |
| 20260905200604 | 79 | 18 | 2.0 | 6.0 | 0.00 | 0.00 | 0.00 | 61 | 1011.3 |
| 20260905200104 | 78 | 100 | 3.0 | 7.0 | 0.00 | 0.00 | 0.00 | 60 | 1011.3 |
| 20260905195604 | 79 | 37 | 4.0 | 9.0 | 0.00 | 0.00 | 0.00 | 60 | 1011.3 |
| 20260905195104 | 78 | 80 | 4.0 | 10.0 | 0.00 | 0.00 | 0.00 | 61 | 1011.3 |
| 20260905194604 | 78 | 44 | 5.0 | 9.0 | 0.00 | 0.00 | 0.00 | 61 | 1011.3 |
| 20260905193604 | 78 | 351 | 4.0 | 10.0 | 0.00 | 0.00 | 0.00 | 60 | 1011.2 |
| 20260905193103 | 78 | 47 | 3.0 | 9.0 | 0.00 | 0.00 | 0.00 | 59 | 1011.2 |
| 20260905192104 | 78 | 95 | 3.0 | 9.0 | 0.00 | 0.00 | 0.00 | 60 | 1011.2 |
| 20260905191603 | 78 | 6 | 2.0 | 8.0 | 0.00 | 0.00 | 0.00 | 63 | 1011.3 |
| 20260905191104 | 77 | 26 | 3.0 | 9.0 | 0.00 | 0.00 | 0.00 | 63 | 1011.4 |
| 20260905190604 | 78 | 6 | 3.0 | 6.0 | 0.00 | 0.00 | 0.00 | 62 | 1011.4 |
| 20260905190103 | 78 | 82 | 2.0 | 7.0 | 0.00 | 0.00 | 0.00 | 61 | 1011.3 |
| 20260905185604 | 79 | 22 | 3.0 | 8.0 | 0.00 | 0.00 | 0.00 | 60 | 1011.4 |
| 20260905184604 | 80 | 27 | 1.0 | 3.0 | 0.00 | 0.00 | 0.00 | 59 | 1011.4 |
| 20260905184103 | 80 | 65 | 3.0 | 10.0 | 0.00 | 0.00 | 0.00 | 58 | 1011.4 |
| 20260905183604 | 79 | 90 | 3.0 | 8.0 | 0.00 | 0.00 | 0.00 | 58 | 1011.5 |
| 20260905183103 | 79 | 42 | 3.0 | 8.0 | 0.00 | 0.00 | 0.00 | 59 | 1011.5 |
| 20260905182604 | 79 | 353 | 3.0 | 8.0 | 0.00 | 0.00 | 0.00 | 61 | 1011.5 |
| 20260905182103 | 78 | 350 | 1.0 | 9.0 | 0.00 | 0.00 | 0.00 | 64 | 1011.5 |
| 20260905181104 | 78 | 27 | 2.0 | 10.0 | 0.00 | 0.00 | 0.00 | 62 | 1011.7 |
| 20260905180604 | 78 | 19 | 6.0 | 12.0 | 0.00 | 0.00 | 0.00 | 61 | 1011.7 |
| 20260905175104 | 77 | 50 | 4.0 | 9.0 | 0.00 | 0.00 | 0.00 | 63 | 1011.9 |
| 20260905174604 | 77 | 65 | 5.0 | 12.0 | 0.00 | 0.00 | 0.00 | 66 | 1011.9 |
| 20260905173603 | 77 | 95 | 6.0 | 10.0 | 0.00 | 0.00 | 0.00 | 66 | 1012.0 |
| 20260905173103 | 76 | 86 | 1.0 | 12.0 | 0.00 | 0.00 | 0.00 | 67 | 1012.0 |
| 20260905172603 | 76 | 84 | 4.0 | 12.0 | 0.00 | 0.00 | 0.00 | 66 | 1012.0 |
| 20260905172104 | 76 | 63 | 2.0 | 9.0 | 0.00 | 0.00 | 0.00 | 68 | 1012.1 |
| 20260905171604 | 75 | 0 | 2.0 | 7.0 | 0.00 | 0.00 | 0.00 | 69 | 1012.1 |
| 20260905171103 | 75 | 57 | 2.0 | 9.0 | 0.00 | 0.00 | 0.00 | 68 | 1012.1 |
| 20260905170603 | 75 | 89 | 3.0 | 10.0 | 0.00 | 0.00 | 0.00 | 67 | 1012.2 |
| 20260905170104 | 76 | 58 | 5.0 | 13.0 | 0.00 | 0.00 | 0.00 | 66 | 1012.2 |
| 20260905165603 | 76 | 97 | 5.0 | 9.0 | 0.00 | 0.00 | 0.00 | 67 | 1012.1 |
| 20260905165104 | 76 | 18 | 4.0 | 8.0 | 0.00 | 0.00 | 0.00 | 67 | 1012.2 |
| 20260905164604 | 75 | 44 | 3.0 | 8.0 | 0.00 | 0.00 | 0.00 | 69 | 1012.2 |
| 20260905164105 | 75 | 84 | 2.0 | 5.0 | 0.00 | 0.00 | 0.00 | 70 | 1012.2 |
| 20260905163606 | 75 | 103 | 1.0 | 5.0 | 0.00 | 0.00 | 0.00 | 70 | 1012.2 |
| 20260905163105 | 75 | 20 | 5.0 | 9.0 | 0.00 | 0.00 | 0.00 | 69 | 1012.2 |
| 20260905162605 | 75 | 4 | 0.0 | 2.0 | 0.00 | 0.00 | 0.00 | 69 | 1012.1 |
| 20260905162106 | 76 | 358 | 2.0 | 8.0 | 0.00 | 0.00 | 0.00 | 68 | 1012.1 |
| 20260905161605 | 76 | 109 | 0.0 | 3.0 | 0.00 | 0.00 | 0.00 | 70 | 1012.1 |
| 20260905161105 | 75 | 118 | 2.0 | 5.0 | 0.00 | 0.00 | 0.00 | 71 | 1012.2 |
| 20260905160605 | 74 | 27 | 3.0 | 5.0 | 0.00 | 0.00 | 0.00 | 70 | 1012.2 |
| 20260905160105 | 74 | 122 | 3.0 | 7.0 | 0.00 | 0.00 | 0.00 | 72 | 1012.1 |
| 20260905155605 | 75 | 9 | 2.0 | 5.0 | 0.00 | 0.00 | 0.00 | 71 | 1012.2 |
| 20260905155104 | 75 | 55 | 2.0 | 6.0 | 0.00 | 0.00 | 0.00 | 70 | 1012.2 |
| 20260905154605 | 75 | 97 | 2.0 | 5.0 | 0.00 | 0.00 | 0.00 | 72 | 1012.2 |
| 20260905154105 | 75 | 107 | 2.0 | 7.0 | 0.00 | 0.00 | 0.00 | 72 | 1012.2 |
| 20260905153605 | 75 | 99 | 2.0 | 12.0 | 0.00 | 0.00 | 0.00 | 72 | 1012.2 |
| 20260905153105 | 76 | 2 | 3.0 | 8.0 | 0.00 | 0.00 | 0.00 | 71 | 1012.2 |